Flag for U.S.A. Weather past 2 weeks in Lakewood, Colorado, U.S.A.

Now
40 °F

Passing clouds.


Feels Like: 38 °F
Forecast: 36 / 62 °F
Wind: 3 mph from Southwest

Location: Centennial Airport

Current Time: Oct 2, 2014 at 8:34:46 AM

Latest Report: Oct 2, 2014 at 7:53 AM


Visibility: 10 mi

Pressure: 30.15 "Hg

Humidity: 89%

Dew point: 37 °F

Location of LakewoodLocation

Historic Weather in Lakewood — Graph

°F

Lakewood temperature yesterday

Maximum temperature yesterday: 64 °F (at 12:53 PM)
Minimum temperature yesterday: 41 °F (at 3:53 AM)
Average temperature yesterday: 49 °F

Past Weeks' High & Low Weather Summary

 TemperatureHumidityPressure
High87 °F (Sep 17, 2:53 PM)97% (Sep 21, 10:53 PM)30.28 "Hg (Sep 21, 10:53 PM)
Low35 °F (Oct 2, 5:53 AM)13% (Sep 18, 3:53 PM)29.71 "Hg (Oct 1, 1:53 PM)
Average63 °F53%29.94 "Hg
* Reported Sep 17 6:53 AM — Oct 2 6:53 AM, Lakewood, Weather by CustomWeather, © 2014

Note: Actual official high and low records may vary slightly from our data, if they occured in-between our weather recording intervals... More about our weather records

Advertising

Lakewood weather history for previous 24 hours

 ConditionsComfort  
Time TempWeatherWind HumidityBarometerVisibility
6:53 AM
Oct 2
36 °FPassing clouds.3 mph92%30.15 "Hg10 mi
5:53 AM35 °FClear.No wind96%30.14 "Hg10 mi
4:53 AM38 °FPassing clouds.6 mph93%30.09 "Hg10 mi
3:53 AM39 °FPassing clouds.7 mph93%30.07 "Hg10 mi
2:53 AM39 °FPassing clouds.8 mph96%30.03 "Hg10 mi
1:53 AM40 °FMostly cloudy.6 mph93%30.03 "Hg10 mi
12:53 AM40 °FLight rain. Fog.8 mph89%30.03 "Hg6 mi
11:53 PM
Oct 1
41 °FLight rain. Fog.7 mph96%30.03 "Hg4 mi
10:53 PM41 °FLight rain. Mostly cloudy.6 mph93%30.02 "Hg9 mi
9:53 PM41 °FRain. Fog.7 mph93%30.02 "Hg3 mi
8:53 PM43 °FRain. Fog.7 mph89%30.01 "Hg3 mi
7:53 PM44 °FLight rain. Mostly cloudy.9 mph89%29.98 "Hg10 mi
6:53 PM45 °FLight rain. Cloudy.7 mph86%29.97 "Hg10 mi
5:53 PM45 °FLow clouds.16 mph93%29.93 "Hg10 mi
4:53 PM49 °FBroken clouds.17 mph86%29.87 "Hg10 mi
3:53 PM52 °FBroken clouds.12 mph83%29.84 "Hg10 mi
2:55 PM64 °FThunderstorms. Broken clouds.6 mph34%29.81 "Hg10 mi
1:53 PM63 °FLight rain. Partly sunny.17 mph34%29.71 "Hg10 mi
12:53 PM64 °FBroken clouds.9 mph33%29.73 "Hg10 mi
11:53 AM63 °FPartly sunny.13 mph34%29.76 "Hg10 mi
10:53 AM60 °FPartly sunny.5 mph36%29.78 "Hg10 mi
9:53 AM57 °FPartly sunny.8 mph42%29.80 "Hg10 mi
8:53 AM51 °FBroken clouds.7 mph61%29.81 "Hg10 mi
Weather by CustomWeather, © 2014

See weather overviewHow to use our weather pages